www.pogodaiklimat.ru

Погода и климат >> Архив погоды >> Италия >> Рим


АРХИВ ПОГОДЫ в Риме

Время (UTC), дата Ветер
(напр.,м/с)
 
Видим.   Явления Облачность Т
(С)
Тd
(С)
f
(%)
Тe
(С)
Тes
(С)
Комфортность P
(гПа)
Po
(гПа)
Тmin
(С)
Tmax
(С)
R
(мм)
R24
(мм)
S
(см)
06 15.08 СВ 1 55 км ясно +21.6 +15.1 67 +25 +27 комфорт 1014.3 1013.8 +19.1
09 15.08 С 2 55 км 1/0
[Ci fib]
+27.7 +14.4 44 +30 +42 жарко 1014.3 1013.8
12 15.08 З 6 55 км 1/0
[As op]
+28.4 +15.8 46 +31 +37 душно 1013.7 1013.2
15 15.08 СЗ 8 65 км ясно +27.3 +19.2 61 +33 +34 очень
душно
1013.2 1012.7
18 15.08 СЗ 6 55 км ясно +25.1 +19.9 73 +31 +31 очень
душно
1013.3 1012.8 +29.4
21 15.08 З 4 55 км ясно +23.7 +21.6 88 +30 +30 очень
душно
1014.2 1013.7
00 16.08 З 3 н/о н/о +22.4 +20.6 90 +29 +29 очень
душно
1013.8 1013.3
03 16.08 СВ 2 н/о н/о +19.5 +18.9 96 +23 +23 комфорт 1013.5 1013.0
06 16.08 В 3 30 км ясно +21.5 +18.1 81 +26 +28 душно 1013.9 1013.4 +18.0
09 16.08 30 км ясно +28.2 +16.3 48 1014.7 1014.2
12 16.08 З 5 30 км 1/1 900 м
[Cu Sc]
+28.6 +17.5 51 +33 +40 очень
душно
1014.5 1014.0
15 16.08 З 6 30 км 3/3
[Cu med, cong]
+26.9 +18.0 58 +31 +33 душно 1014.1 1013.6
18 16.08 З 5 20 км 6/0
[Ci fib]
+25.1 +21.0 78 +32 +32 очень
душно
1013.7 1013.2 +29.6
21 16.08 СЗ 1 15 км ясно +22.8 +21.2 91 +30 +30 очень
душно
1015.2 1014.7
00 17.08 З 1 30 км ясно +21.9 +21.3 96 +28 +28 душно 1015.8 1015.3
03 17.08 СВ 1 55 км ясно +18.4 +17.9 97 +20 +20 по сезону 1015.4 1014.9
06 17.08 18 км ясно +21.9 +20.0 89 1016.3 1015.8 +17.9
09 17.08 З 3 35 км 6/1 600 м
[Cu hum Ci]
+26.7 +21.1 71 +34 +42 очень
душно
1017.2 1016.7
12 17.08 ЮЗ 5 40 км 5/1 900 м
[Cu med, cong Ci]
+27.9 +20.9 66 +35 +42 очень
душно
1016.9 1016.4
15 17.08 З 5 30 км 9/3 900 м
[Cu hum Ci fib]
+26.8 +22.0 75 +35 +37 очень
душно
1016.2 1015.7
18 17.08 З 3 40 км 9/0
[Cc]
+24.5 +21.0 81 +31 +31 очень
душно
1015.9 1015.4 +28.5
21 17.08 З 2 3000 м ясно +23.3 +21.9 92 +32 +32 очень
душно
1016.4 1015.9
00 18.08 В 1 н/о н/о +21.2 +20.7 97 +26 +26 душно 1016.4 1015.9
03 18.08 С 2 н/о н/о +18.2 +18.1 99 +19 +19 прохладно 1015.8 1015.3
06 18.08 СВ 2 1000 м туман местами 3/1 30 м
[St Ci fib]
+21.3 +19.9 92 +26 +28 душно 1016.4 1015.9 +17.7
09 18.08 нст 2 30 км {туман} 1/0
[Ci fib]
+28.8 +20.8 62 +36 +48 очень
душно
1016.7 1016.2
12 18.08 З 4 45 км {туман} 1/1 600 м
[Cu hum Ci fib]
+28.4 +18.9 56 +34 +43 очень
душно
1016.6 1016.1
15 18.08 З 4 30 км ясно +27.2 +21.7 72 +35 +39 очень
душно
1016.0 1015.5
18 18.08 СЗ 3 30 км ясно +24.6 +21.9 85 +32 +32 очень
душно
1015.5 1015.0 +29.3
21 18.08 СВ 1 20 км ясно +20.8 +20.1 96 +27 +27 душно 1016.3 1015.8
00 19.08 С 1 5000 м дымка 1/1 <50 м
[St]
+19.3 +18.1 93 +22 +22 комфорт 1016.3 1015.7
03 19.08 В 1 7000 м дымка {туман} ясно +17.6 +17.5 99 +19 +19 прохладно 1016.1 1015.6
06 19.08 нст 1 25 км {туман} ясно +19.6 +18.2 92 +24 +26 комфорт 1016.5 1016.0 +16.0
09 19.08 З 4 >70 км ясно +27.1 +16.4 52 +31 +40 душно 1017.2 1016.7
15 19.08 З 5 60 км ясно +27.2 +20.7 68 +34 +37 очень
душно
1016.8 1016.3
21 19.08 СЗ 2 55 км ясно +22.9 +21.6 92 +31 +31 очень
душно
1017.5 1017.0
00 20.08 СЗ 2 н/о н/о +19.4 +18.8 96 +23 +23 комфорт 1017.3 1016.8
12 20.08 З 5 >70 км ясно +29.3 +18.8 53 +34 +44 очень
душно
1017.4 1016.9
21 20.08 СВ 1 55 км ясно +23.2 +21.6 91 +31 +31 очень
душно
1017.4 1016.9
00 21.08 СВ 1 30 км ясно +20.7 +20.3 98 +27 +27 душно 1016.9 1016.4
09 21.08 З 3 30 км ясно +27.6 +18.0 56 +32 +42 очень
душно
1017.8 1017.3
12 21.08 З 5 30 км ясно +28.7 +19.8 59 +35 +44 очень
душно
1017.5 1016.9
15 21.08 З 5 30 км ясно +27.4 +22.4 74 +36 +39 очень
душно
1016.9 1016.4
18 21.08 З 3 15 км ясно +25.4 +23.3 88 +34 +34 очень
душно
1016.6 1016.1 +29.5
21 21.08 З 1 9000 м дымка 3/3 300 м
[Cu hum]
+24.0 +23.4 96 +32 +32 очень
душно
1017.6 1017.1
00 22.08 З 1 6000 м дымка ясно +23.3 +23.3 100 +33 +33 очень
душно
1017.3 1016.8
03 22.08 СВ 1 1000 м туман местами 3/3 240 м
[Cu hum]
+20.3 +20.3 100 +25 +25 комфорт 1017.1 1016.6

 

Местоположение метеостанции Рим (Италия): широта 41.80 долгота 12.23 высота над уровнем моря 3 м.

В архиве по умолчанию представлена погода в Риме за последнюю неделю. Архивные данные за месяц целиком и за предыдущие месяцы, начиная с января 2011 года, Вы можете получить, выбрав интересующий диапазон дат из раскрывающегося списка и нажав кнопку "Ввод!".


*Определитесь, кто Вы:
робот инопланетянин человек

Внимание! Время в таблицах - всемирное. Для получения местного времени необходимо прибавить поправку, которая равна 1 ч.

Смотрите также архив погоды в соседних городах и на ближайших метеорологических станциях:

Погода в Пратика-ди-Маре (Италия) (25 км)
Погода в Винья-ди-Валле (Италия) (31 км)
Погода в Чивитавеккье (Италия) (42 км)
Погода в Гуидония-Монтечельо (Италия) (47 км)
Погода в Латине (Италия) (62 км)
Погода в Латине 2 (Италия) (62 км)
Погода в Витербо (Италия) (72 км)
Погода во Фрозиноне (Италия) (91 км)
Погода в Торре-Олеволе (Италия) (96 км)
Погода на Монте Терминилло (Италия) (97 км)

Пояснения к столбцам:

Ветер - указаны скорость ветра в м/с - средняя за 10 мин, порывы в срок и между сроками (в фигурных скобках) и направление, откуда дует ветер: С - северный, СВ - северо-восточный, В - восточный, ЮВ - юго-восточный, Ю - южный, ЮЗ - юго-западный, З - западный, СЗ - северо-западный.
Видимость - горизонтальная дальность видимости в метрах или километрах. При видимости от 1 до 10 км при отсутствии осадков обычно наблюдается дымка, при ухудшении видимости до 1 км и менее - туман. В сухую погоду видимость может ухудшаться дымом, пылью или мглою.
Явления - указаны атмосферные явления, наблюдавшиеся в срок или в последний час перед сроком; фигурными скобками обозначены явления, наблюдавшиеся между сроками (за 1-3 часа до срока); квадратными скобками обозначены град или гололедные отложения с указанием их диаметра в мм.
Облачность - указаны через наклонную черту общая и нижняя облачность в баллах и высота нижней границы облаков в метрах; квадратными скобками обозначены формы облаков: Ci - перистые, Cs - перисто-слоистые, Cc - перисто-кучевые, Ac - высококучевые, As - высокослоистые, Sc - слоисто-кучевые, Ns - слоисто-дождевые, Cu - кучевые, Cb - кучево-дождевые. Подробнее классификацию облаков см. в Атласе облаков (PDF).
T - Температура воздуха - температура, измеренная на высоте 2 м над землей.
Td - Температура точки росы - температура, при понижении до которой содержащийся в воздухе водяной пар достигнет насыщения.
f - Относительная влажность воздуха - влажноcть воздуха, измеренная на высоте 2 м над землей.
Te - Эффективная температура - температура, которую ощущает одетый по сезону человек в тени. Характеристика душности погоды. При расчете учитывается влияние влажности воздуха и скорости ветра на теплоощущения человека.
Tes - Эффективная температура на солнце - температура, которую ощущает человек, с поправкой на солнечный нагрев. Характеристика знойности погоды. Зависит от высоты солнца над горизонтом, облачности и скорости ветра. Ночью, в пасмурную погоду, а также при ветре 12 м/с и более поправка равна нулю.
P - Атмосферное давление - приведенное к уровню моря атмосферное давление.
Po - Атмосферное давление - измеренное на уровне метеостанции атмосферное давление.
Tmin - Минимальная температура - минимум температуры воздуха на высоте 2 м над землей.
Tmax - Максимальная температура - максимум температуры воздуха на высоте 2 м над землей.
R - Количество осадков - Количество выпавших осадков за период времени, мм. При наведении курсора мыши на число - период времени, за который выпало указанное количество осадков.
R24 - Количество осадков - Количество выпавших осадков за 24 часа, мм.
S - Снежный покров - Высота снежного покрова, см. При наведении курсора мыши на число - состояние снежного покрова и степень покрытия местности в баллах.